CZ-6A DEB

Satellite information

Favourite Embed

Satellite Type and Status

DEBRISIN ORBIT

Key statistics

Satellite CZ-6A DEB at a glance.

Uptime

1075

Days in orbit

Revolutions

≈ 14.2

Per day

Orbit

SSO

Sun Synchronous Orbit

Inclination

98.8

Latest

Satellite identification and parameters

Extended collection of information and parameters for CZ-6A DEB.

Object identification

Identified? True

Debris? True

Object name: CZ-6A DEB

International designator: 2022-151ADE

Object number (NORAD): 56582

Object ID (CCSDS): 56582

Country: PEOPLES REPUBLIC OF CHINA (PRC)

Current information (Y/N): Y

RCS size: SMALL

Orbital parameters

Period: 101.115 minutes

Inclination: 98.7765 deg

SMA: 7189.6 km

Apoapsis: 817.029 km

Periapsis: 805.901 km

RAAN: 308.111 deg

Eccentricy: 0.00077387

Argument of periapsis: 295.5374 deg

Mean anomaly: 64.5005 deg

Mean motion: 14.24117052 rev/day

Mean motion (dot): 0.00002847 rev/day2

B* drag term: 0.00125602 1/REarth

Two-line elements (TLE)

Creation date: Oct. 20, 2025, 6:08 p.m.

Reference frame: TEME

Reference center: EARTH

Epoch: Oct. 20, 2025, 12:05 p.m. UTC

TLE line 0: 0 CZ-6A DEB

TLE line 1: 1 56582U 22151ADE 25293.50398042 .00002847 00000-0 12560-2 0 9996

TLE line 2: 2 56582 98.7765 308.1110 0007739 295.5374 64.5005 14.24117052140760

Live tracking on map

Real-time ground track for satellite CZ-6A DEB.

In-orbit conjunctions

A list of the most updated potential collisions computed for object CZ-6A DEB.

Target Orbit TCA Probability of collision Miss distance Type
NOAA 16 DEB SSO 2024-11-11 10:49:01 0.000104584 784.0 (m) DEBRIS
COSMOS 2251 DEB LEO 2024-06-16 18:19:09 0.0003279561 53.0 (m) DEBRIS

Associated space launch

Chinese satellite reported for atmospheric/ocean/environmental/spatial parameter research purposes, details TBD.

CZ-6A DEB was lifted into orbit during the mission ‘Long March 6A | Yunhai 3’, on board a Long March 6A space rocket.

The launch took place on Nov. 11, 2022, 10:52 p.m. from Launch Complex 9A.

For more information about the launch, click the button.

Launch to space Long March 6A | Yunhai 3
Long March 6A | Yunhai 3

Agency: N/A

Status: Launch Successful

Launch date: Nov. 11, 2022, 10:52 p.m. UTC

Rocket: Long March 6A

Launch pad: Launch Complex 9A

Location: Taiyuan Satellite Launch Center, People's Republic of China

...

Latest news about this satellite

There are no fresh news available about this satellite. Check back as we update our databases every day.


Newsletter sign-up

Weekly statistics, charts and insights to help you stay on top of the space industry.